Starlink 3135

operational
NORAD ID: 49424 Int'l Des: 2021-104 Owner: SPXS Country: US Constellation: starlink
LEOCIRCULAR

Starlink 3135について

説明を読み込み中...

リアルタイム位置

3D地球を読み込み中...

次回通過

高度履歴

Altitude vs Time

uPlot chart will show altitude changes over time

軌道要素

1 49424U 21104S 26034.24500844 .00001122 00000-0 88557-4 0 9996
2 49424 53.2177 23.7481 0001622 89.1463 270.9715 15.08837431233422
Epoch: Feb 3, 2026 • Age: 22 hours

現在のステータス

高度 559.1 km
速度 7.58 km/s
衛星直下点 -52.62°S, 86.49°E
打ち上げ日 Nov 13, 2021
運用期間 4.2 years
タイプ internet

技術仕様

分類 Payload
質量 290.00 kg
乾燥質量 270.00 kg
総質量 290.00 kg
長さ 0.20 m
直径 2.80 m
スパン 9.00 m
形状 Box + pan
製造者 SPXS
バスタイプ Starlink
フェーズステータス In Orbit
所有者/国 SPXS/US

大規模コンステレーション

Loading constellations...